• în România
  • Lista ţărilor
  • Pe 7 zile
  • Temperatura apei
  • Hartă satelitară
  • Meteo pe hartă
  • Widget-uri
  • user-avatar
    Intrare

    Meteo pe oră la Podem-Mihaylovka

    Astăzi, 17 Octombrie, Miercuri

    Timp Temperatura Precipitaţii Vânt Presiune Umiditate
    00:00 +10°C° 0 mm 2 m/s 760 mmHg 87%
    01:00 +9°C° 0 mm 3 m/s 760 mmHg 88%
    02:00 +9°C° 0 mm 3 m/s 760 mmHg 89%
    03:00 +8°C° 0 mm 2 m/s 759 mmHg 91%
    04:00 +8°C° 0 mm 3 m/s 759 mmHg 92%
    05:00 +8°C° 0 mm 3 m/s 759 mmHg 92%
    06:00 +8°C° 0 mm 3 m/s 759 mmHg 92%
    07:00 +8°C° 0 mm 4 m/s 758 mmHg 85%
    08:00 +10°C° 0 mm 4 m/s 758 mmHg 77%
    09:00 +12°C° 0 mm 5 m/s 758 mmHg 70%
    10:00 +13°C° 0 mm 5 m/s 758 mmHg 64%
    11:00 +14°C° 0 mm 6 m/s 758 mmHg 58%
    12:00 +15°C° 0 mm 6 m/s 758 mmHg 52%
    13:00 +15°C° 0 mm 6 m/s 758 mmHg 55%
    14:00 +15°C° 0 mm 6 m/s 758 mmHg 57%
    15:00 +15°C° 0 mm 6 m/s 758 mmHg 60%
    16:00 +12°C° 0 mm 7 m/s 759 mmHg 63%
    17:00 +11°C° 0 mm 7 m/s 759 mmHg 67%
    18:00 +10°C° 0 mm 7 m/s 760 mmHg 70%
    19:00 +10°C° 0 mm 6 m/s 760 mmHg 68%
    20:00 +10°C° 0 mm 5 m/s 761 mmHg 65%
    21:00 +9°C° 0 mm 5 m/s 761 mmHg 63%
    22:00 +8°C° 0 mm 4 m/s 762 mmHg 67%
    23:00 +7°C° 0 mm 4 m/s 762 mmHg 70%

    Mâine, 18 Octombrie, Joi

    Timp Temperatura Precipitaţii Vânt Presiune Umiditate
    00:00 +7°C° 0 mm 3 m/s 762 mmHg 74%
    01:00 +5°C° 0 mm 3 m/s 763 mmHg 76%
    02:00 +5°C° 0 mm 3 m/s 763 mmHg 78%
    03:00 +5°C° 0 mm 2 m/s 763 mmHg 80%
    04:00 +5°C° 0 mm 2 m/s 764 mmHg 81%
    05:00 +4°C° 0 mm 2 m/s 764 mmHg 82%
    06:00 +4°C° 0 mm 2 m/s 764 mmHg 83%
    07:00 +5°C° 0 mm 2 m/s 764 mmHg 77%
    08:00 +6°C° 0 mm 2 m/s 764 mmHg 70%
    09:00 +8°C° 0 mm 2 m/s 764 mmHg 64%
    10:00 +9°C° 0 mm 2 m/s 764 mmHg 58%
    11:00 +10°C° 0 mm 2 m/s 764 mmHg 52%
    12:00 +12°C° 0 mm 2 m/s 764 mmHg 46%
    13:00 +12°C° 0 mm 2 m/s 764 mmHg 45%
    14:00 +12°C° 0 mm 2 m/s 763 mmHg 44%
    15:00 +13°C° 0 mm 2 m/s 763 mmHg 42%
    16:00 +10°C° 0 mm 2 m/s 763 mmHg 47%
    17:00 +9°C° 0 mm 2 m/s 763 mmHg 51%
    18:00 +8°C° 0 mm 2 m/s 763 mmHg 55%
    19:00 +8°C° 0 mm 2 m/s 763 mmHg 57%
    20:00 +7°C° 0 mm 2 m/s 763 mmHg 58%
    21:00 +7°C° 0 mm 2 m/s 762 mmHg 60%
    22:00 +7°C° 0 mm 3 m/s 762 mmHg 61%
    23:00 +7°C° 0 mm 3 m/s 762 mmHg 62%

    Poimâine, 19 Octombrie, Vineri

    Timp Temperatura Precipitaţii Vânt Presiune Umiditate
    00:00 +7°C° 0 mm 3 m/s 762 mmHg 64%
    01:00 +7°C° 0 mm 3 m/s 762 mmHg 65%
    02:00 +6°C° 0 mm 4 m/s 762 mmHg 67%
    03:00 +6°C° 0 mm 4 m/s 761 mmHg 69%
    04:00 +6°C° 0 mm 4 m/s 761 mmHg 71%
    05:00 +6°C° 0 mm 4 m/s 761 mmHg 74%
    06:00 +6°C° 0 mm 4 m/s 761 mmHg 76%
    07:00 +7°C° 0 mm 4 m/s 761 mmHg 73%
    08:00 +8°C° 0 mm 5 m/s 761 mmHg 70%
    09:00 +10°C° 0 mm 5 m/s 761 mmHg 67%
    10:00 +12°C° 0 mm 5 m/s 760 mmHg 64%
    11:00 +14°C° 0 mm 6 m/s 760 mmHg 60%
    12:00 +15°C° 0 mm 6 m/s 760 mmHg 56%
    13:00 +15°C° 0 mm 6 m/s 760 mmHg 56%
    14:00 +16°C° 0 mm 6 m/s 759 mmHg 55%
    15:00 +16°C° 0 mm 5 m/s 759 mmHg 55%
    16:00 +15°C° 0 mm 5 m/s 759 mmHg 59%
    17:00 +13°C° 0 mm 5 m/s 759 mmHg 64%
    18:00 +12°C° 0 mm 4 m/s 759 mmHg 68%
    19:00 +12°C° 0 mm 4 m/s 759 mmHg 68%
    20:00 +11°C° 0 mm 4 m/s 759 mmHg 68%
    21:00 +11°C° 0 mm 4 m/s 759 mmHg 68%
    22:00 +11°C° 0 mm 4 m/s 759 mmHg 67%
    23:00 +11°C° 0 mm 4 m/s 758 mmHg 66%

    20 Octombrie, Sâmbătă

    Timp Temperatura Precipitaţii Vânt Presiune Umiditate
    00:00 +10°C° 0 mm 4 m/s 758 mmHg 65%
    01:00 +10°C° 0 mm 4 m/s 758 mmHg 63%
    02:00 +9°C° 0 mm 5 m/s 758 mmHg 62%
    03:00 +8°C° 0 mm 5 m/s 758 mmHg 60%
    04:00 +8°C° 0 mm 5 m/s 758 mmHg 59%
    05:00 +8°C° 0 mm 5 m/s 757 mmHg 57%
    06:00 +8°C° 0 mm 5 m/s 757 mmHg 56%
    07:00 +9°C° 0 mm 5 m/s 757 mmHg 54%
    08:00 +10°C° 0 mm 6 m/s 757 mmHg 52%
    09:00 +11°C° 0 mm 6 m/s 757 mmHg 50%
    10:00 +13°C° 0 mm 6 m/s 756 mmHg 49%
    11:00 +14°C° 0 mm 6 m/s 756 mmHg 48%
    12:00 +15°C° 0 mm 7 m/s 756 mmHg 47%
    13:00 +15°C° 0 mm 6 m/s 756 mmHg 49%
    14:00 +15°C° 0 mm 6 m/s 756 mmHg 50%
    15:00 +15°C° 0 mm 6 m/s 756 mmHg 52%
    16:00 +14°C° 0 mm 5 m/s 756 mmHg 58%
    17:00 +13°C° 0 mm 4 m/s 756 mmHg 64%
    18:00 +12°C° 0 mm 3 m/s 756 mmHg 70%
    19:00 +11°C° 0 mm 3 m/s 756 mmHg 74%
    20:00 +11°C° 0 mm 3 m/s 757 mmHg 77%
    21:00 +10°C° 0 mm 3 m/s 757 mmHg 81%
    22:00 +10°C° 0 mm 3 m/s 757 mmHg 82%
    23:00 +9°C° 0 mm 2 m/s 757 mmHg 83%

    21 Octombrie, Duminică

    Timp Temperatura Precipitaţii Vânt Presiune Umiditate
    00:00 +8°C° 0 mm 2 m/s 757 mmHg 85%
    01:00 +8°C° 0 mm 2 m/s 758 mmHg 86%
    02:00 +7°C° 0 mm 2 m/s 758 mmHg 86%
    03:00 +6°C° 0 mm 2 m/s 758 mmHg 87%
    04:00 +6°C° 0 mm 2 m/s 758 mmHg 88%
    05:00 +5°C° 0 mm 2 m/s 758 mmHg 89%
    06:00 +5°C° 0 mm 2 m/s 759 mmHg 90%
    07:00 +6°C° 0 mm 2 m/s 759 mmHg 84%
    08:00 +7°C° 0 mm 2 m/s 759 mmHg 78%
    09:00 +8°C° 0 mm 2 m/s 760 mmHg 72%
    10:00 +9°C° 0 mm 2 m/s 760 mmHg 66%
    11:00 +10°C° 0 mm 2 m/s 760 mmHg 61%
    12:00 +12°C° 0 mm 2 m/s 760 mmHg 56%
    13:00 +12°C° 0 mm 2 m/s 760 mmHg 55%
    14:00 +12°C° 0 mm 2 m/s 760 mmHg 54%
    15:00 +11°C° 0 mm 3 m/s 760 mmHg 54%
    16:00 +10°C° 0 mm 2 m/s 760 mmHg 59%
    17:00 +9°C° 0 mm 2 m/s 761 mmHg 64%
    18:00 +7°C° 0 mm 2 m/s 761 mmHg 70%
    19:00 +7°C° 0 mm 2 m/s 761 mmHg 72%
    20:00 +6°C° 0 mm 2 m/s 761 mmHg 75%
    21:00 +6°C° 0 mm 2 m/s 761 mmHg 77%
    22:00 +6°C° 0 mm 2 m/s 762 mmHg 79%
    23:00 +5°C° 0 mm 2 m/s 762 mmHg 80%

    22 Octombrie, Luni

    Timp Temperatura Precipitaţii Vânt Presiune Umiditate
    00:00 +5°C° 0 mm 2 m/s 762 mmHg 81%
    01:00 +5°C° 0 mm 2 m/s 762 mmHg 82%
    02:00 +4°C° 0 mm 2 m/s 762 mmHg 83%
    03:00 +4°C° 0 mm 2 m/s 762 mmHg 84%
    04:00 +4°C° 0 mm 2 m/s 763 mmHg 85%
    05:00 +3°C° 0 mm 2 m/s 763 mmHg 87%
    06:00 +3°C° 0 mm 2 m/s 763 mmHg 88%
    07:00 +4°C° 0 mm 2 m/s 763 mmHg 82%
    08:00 +5°C° 0 mm 2 m/s 763 mmHg 76%
    09:00 +6°C° 0 mm 2 m/s 763 mmHg 69%
    10:00 +8°C° 0 mm 2 m/s 763 mmHg 63%
    11:00 +9°C° 0 mm 2 m/s 763 mmHg 56%
    12:00 +10°C° 0 mm 2 m/s 763 mmHg 49%
    13:00 +10°C° 0 mm 2 m/s 763 mmHg 48%
    14:00 +10°C° 0 mm 2 m/s 763 mmHg 47%
    15:00 +10°C° 0 mm 2 m/s 762 mmHg 46%
    16:00 +9°C° 0 mm 2 m/s 762 mmHg 51%
    17:00 +8°C° 0 mm 2 m/s 762 mmHg 56%
    18:00 +6°C° 0 mm 2 m/s 762 mmHg 60%
    19:00 +6°C° 0 mm 2 m/s 762 mmHg 62%
    20:00 +6°C° 0 mm 2 m/s 762 mmHg 65%
    21:00 +5°C° 0 mm 2 m/s 762 mmHg 67%
    22:00 +5°C° 0 mm 2 m/s 762 mmHg 68%
    23:00 +5°C° 0 mm 2 m/s 762 mmHg 70%
    Arată mai mult